Randolph AFB, TX

11:10 AM CST on February 24, 2018 (GMT -0600)
Randolph Air Force Base

Weather History for KRND - December, 2015

Change the Weather History Date:

Tuesday, December 8, 2015

  Actual Average Record
Temperature  
Mean Temperature 56 °F -  
Max Temperature 73 °F 62 °F 80 °F (1999)
Min Temperature 40 °F 42 °F 23 °F (2005)
Degree Days  
Heating Degree Days 8    
Growing Degree Days 6 (Base 50)    
Moisture  
Dew Point 48 °F    
Average Humidity 72    
Maximum Humidity 97    
Minimum Humidity 44    
Precipitation  
Precipitation 0.00 in - - ()
Sea Level Pressure  
Sea Level Pressure 30.03 in    
Wind  
Wind Speed 5 mph (SW)    
Max Wind Speed 13 mph    
Max Gust Speed -    
Visibility 10 miles    
Events      
Averages and records for this station are not official NWS values.
T = Trace of Precipitation, MM = Missing Value Source: NWS Daily Summary

Daily Weather History Graph

Daily Weather History Graph

Search for Another Location

Airport or City:

Trip Planner

Search our weather history database for the weather conditions in past years. The results will help you decide how hot, cold, wet, or windy it might be!

Date:

Astronomy

Dec. 08, 2015 Rise Set
Actual Time 7:15 AM CST 5:34 PM CST
Civil Twilight 6:49 AM CST 6:00 PM CST
Nautical Twilight 6:19 AM CST 6:30 PM CST
Astronomical Twilight 5:50 AM CST 6:59 PM CST
Moon 4:35 AM CST (12/8) 3:56 PM CST (12/8)
Length of Visible Light 11h 11m
Length of Day
10h 18m
Waning Crescent, 7% of the Moon is Illuminated
Dec 8
Waning Crescent
Dec 11
New
Dec 18
First Quarter
Dec 25
Full
Jan 1
Last Quarter

Hourly Weather History & Observations

Time (CST) Temp. Windchill Dew Point Humidity Pressure Visibility Wind Dir Wind Speed Gust Speed Precip Events Conditions
12:58 AM 41.7 °F 38.8 °F 39.9 °F 93% 30.13 in 10.0 mi NNW 4.6 mph - N/A   Clear
1:58 AM 41.4 °F 38.4 °F 40.1 °F 95% 30.12 in 10.0 mi NNW 4.6 mph - N/A   Clear
2:58 AM 43.3 °F 39.9 °F 41.2 °F 92% 30.10 in 10.0 mi NW 5.8 mph - N/A   Clear
3:58 AM 40.5 °F 35.8 °F 39.2 °F 95% 30.09 in 10.0 mi NNW 6.9 mph - N/A   Clear
4:58 AM 41.2 °F 38.2 °F 40.1 °F 96% 30.07 in 10.0 mi NW 4.6 mph - N/A   Clear
5:58 AM 40.8 °F 38.8 °F 38.3 °F 91% 30.07 in 10.0 mi SSW 3.5 mph - N/A   Clear
6:58 AM 42.6 °F 39.9 °F 40.5 °F 92% 30.09 in 10.0 mi WSW 4.6 mph - N/A   Clear
7:58 AM 43.5 °F - 42.8 °F 97% 30.09 in 10.0 mi Calm Calm - N/A   Clear
8:58 AM 56.5 °F - 50.5 °F 80% 30.09 in 10.0 mi SW 6.9 mph - N/A   Clear
9:58 AM 61.0 °F - 52.3 °F 73% 30.10 in 10.0 mi SW 6.9 mph - N/A   Clear
10:58 AM 65.8 °F - 52.0 °F 61% 30.08 in 10.0 mi SW 8.1 mph - N/A   Clear
11:58 AM 68.7 °F - 52.2 °F 55% 30.06 in 10.0 mi SW 12.7 mph - N/A   Clear
12:58 PM 71.2 °F - 53.1 °F 53% 30.02 in 10.0 mi SSW 11.5 mph - N/A   Clear
1:58 PM 72.3 °F - 51.4 °F 48% 29.98 in 10.0 mi South 9.2 mph - N/A   Clear
2:58 PM 73.8 °F - 51.4 °F 45% 29.96 in 10.0 mi SW 10.4 mph - N/A   Clear
3:58 PM 73.4 °F - 50.4 °F 44% 29.95 in 10.0 mi SW 8.1 mph - N/A   Clear
4:58 PM 71.1 °F - 50.9 °F 49% 29.95 in 10.0 mi SSW 5.8 mph - N/A   Clear
5:58 PM 66.4 °F - 50.9 °F 57% 29.95 in 10.0 mi SSW 5.8 mph - N/A   Clear
6:48 PM 64.4 °F - 50.0 °F 59% 29.96 in 9.0 mi SW 3.5 mph - N/A   Clear
6:53 PM 64.4 °F - 51.8 °F 64% 29.97 in 10.0 mi SW 2.3 mph - N/A   Clear
6:58 PM 64.2 °F - 51.1 °F 62% 29.97 in 10.0 mi Calm Calm - N/A   Clear
7:18 PM 62.6 °F - 50.0 °F 63% 29.97 in 9.0 mi SSW 3.5 mph - N/A   Clear
7:23 PM 60.8 °F - 50.0 °F 68% 29.97 in 9.0 mi SSW 3.5 mph - N/A   Clear
7:58 PM 57.9 °F - 49.8 °F 74% 29.97 in 10.0 mi SSW 8.1 mph - N/A   Clear
8:58 PM 61.2 °F - 51.1 °F 69% 29.99 in 10.0 mi WSW 2.3 mph - N/A   Clear
9:58 PM 59.9 °F - 51.6 °F 74% 30.01 in 10.0 mi SSW 5.8 mph - N/A   Clear
10:58 PM 57.7 °F - 51.8 °F 81% 30.01 in 10.0 mi West 3.5 mph - N/A   Clear
11:58 PM 56.5 °F - 51.4 °F 83% 30.00 in 10.0 mi West 3.5 mph - N/A   Clear